This is the latest recevied weather packets stored in our database for station/object KB5DPX. If no packets are shown the sender has not sent any weather packets the latest 10 day(s).
| Time | Temp. | Humidity | Pressure | Rain* | Wind** | Luminosity | Snow |
|---|---|---|---|---|---|---|---|
| 1778233048 | -0.56° C | 87% | 1009.8 hPa | 0 mm | - | 0 W/m² | - |
| 1778232755 | -0.56° C | 86% | 1010 hPa | 0 mm | - | 0 W/m² | - |
| 1778232454 | -0.56° C | 87% | 1010 hPa | 0 mm | - | 0 W/m² | - |
| 1778232141 | 0° C | 87% | 1010 hPa | 0 mm | - | 0 W/m² | - |
| 1778231837 | 0° C | 87% | 1010 hPa | 0 mm | - | 0 W/m² | - |
| 1778231552 | 0° C | 87% | 1010 hPa | 0 mm | - | 0 W/m² | - |
| 1778231254 | 0° C | 86% | 1010.1 hPa | 0 mm | - | 0 W/m² | - |
| 1778230957 | 0.56° C | 82% | 1010.2 hPa | 0 mm | - | 0 W/m² | - |
| 1778230655 | 0° C | 80% | 1010.2 hPa | 0 mm | - | 0 W/m² | - |
| 1778230342 | 0° C | 81% | 1010.2 hPa | 0 mm | - | 0 W/m² | - |
| 1778230058 | -0.56° C | 81% | 1010.3 hPa | 0 mm | - | 0 W/m² | - |
| 1778229763 | -0.56° C | 83% | 1010.3 hPa | 0 mm | - | 0 W/m² | - |
| 1778229449 | -0.56° C | 84% | 1010.3 hPa | 0 mm | - | 0 W/m² | - |
| 1778229164 | -0.56° C | 84% | 1010.2 hPa | 0 mm | - | 0 W/m² | - |
| 1778228858 | -0.56° C | 83% | 1010.2 hPa | 0 mm | - | 0 W/m² | - |
| 1778228564 | -0.56° C | 82% | 1010.1 hPa | 0 mm | - | 0 W/m² | - |
| 1778228251 | -0.56° C | 83% | 1010.1 hPa | 0 mm | - | 0 W/m² | - |
| 1778227957 | -0.56° C | 83% | 1010.2 hPa | 0 mm | - | 0 W/m² | - |
| 1778227643 | -0.56° C | 82% | 1010.2 hPa | 0 mm | - | 0 W/m² | - |
| 1778227357 | -0.56° C | 82% | 1010.3 hPa | 0 mm | - | 0 W/m² | - |
| 1778227057 | -1.11° C | 82% | 1010.4 hPa | 0 mm | - | 0 W/m² | - |
| 1778226742 | -1.11° C | 83% | 1010.5 hPa | 0 mm | - | 0 W/m² | - |
| 1778226451 | -1.11° C | 83% | 1010.5 hPa | 0 mm | - | 0 W/m² | - |
| 1778226138 | -1.11° C | 84% | 1010.6 hPa | 0 mm | - | 0 W/m² | - |
| 1778225853 | -1.11° C | 84% | 1010.5 hPa | 0 mm | - | 0 W/m² | - |
* Rain latest hour (hover to see other rain measurements)
** Current wind speed in m/s (hover to see current wind gust speed)